[[{"header":{"parameterUnit":"m.s-1","parameterCategory":1,"la1":30.2991,"la2":30.254,"lo1":-89.0895,"lo2":-89.0444,"dy":0.0017,"dx":0.0017,"nx":28,"ny":28,"refTime":"2025-06-18T21:00:00:Z","depth":0,"parameterNumber":2,"parameterNumberName":"U-component_of_WINDS"},"data":[0,0,0,0,0,0,0,0,0,0,0,0,0,0,0,0,0,0,0,0,0,0,0,0,0,0,0,0,0,0,0,0,0,0,0,0,0,0,0,0,0,0,0,0,0,0,0,0,0,0,0,0,0,0,0,0,0,0,-0.3078,-0.3077,0,-0.3016,-0.3015,-0.3015,-0.2986,-0.2987,-0.2987,-0.2987,-0.2923,-0.2921,-0.292,0,0,0,0,0,0,0,0,0,0,0,0,0,-0.3173,-0.3171,-0.3078,-0.3077,-0.3076,-0.3016,-0.3015,-0.3014,-0.2986,-0.2987,-0.2987,-0.2987,-0.2924,-0.2922,-0.292,0,0,0,0,0,0,0,0,0,0,0,0,0,-0.3123,-0.317,-0.3078,-0.3055,-0.3053,-0.3016,-0.3015,-0.3014,-0.2986,-0.2987,-0.2987,-0.2987,-0.2924,-0.2922,-0.2919,-0.2901,0,0,-0.2911,-0.291,0,0,0,0,0,0,0,0,-0.3126,-0.312,-0.3059,-0.3057,-0.3054,-0.3009,-0.3025,-0.2976,-0.2986,-0.3012,-0.2987,-0.2987,-0.2952,-0.2947,-0.2935,-0.2898,-0.2895,-0.2911,-0.2909,-0.2908,-0.2908,0,0,0,0,0,0,0,-0.3129,-0.3122,-0.3053,-0.3059,-0.3055,-0.3048,-0.3041,-0.3016,-0.2982,-0.3009,-0.3007,-0.3,-0.295,-0.2938,-0.2933,-0.2894,-0.2911,-0.2909,-0.2907,-0.2906,-0.2839,-0.2839,0,0,0,0,0,0,-0.3137,-0.3125,-0.3055,-0.3052,-0.3091,-0.3046,-0.3039,-0.3023,-0.2982,-0.2976,-0.3,-0.2999,-0.2942,-0.2936,-0.2931,-0.2907,-0.2908,-0.2906,-0.2904,-0.284,-0.2839,-0.2839,0,0,0,0,0,0,-0.3139,-0.3131,-0.3058,-0.3088,-0.3078,-0.3045,-0.3028,-0.3022,-0.3009,-0.2975,-0.2969,-0.2994,-0.2942,-0.2935,-0.2909,-0.2904,-0.2905,-0.2902,-0.284,-0.284,-0.2839,-0.2858,0,0,0,0,0,0,-0.3142,-0.3132,-0.3124,-0.3088,-0.3077,-0.3037,-0.3027,-0.3021,-0.3005,-0.3003,-0.2967,-0.2961,-0.2941,-0.2913,-0.2906,-0.29,-0.29,-0.284,-0.284,-0.2839,-0.2858,-0.2859,-0.2859,0,0,0,0,0,-0.3145,-0.3132,-0.3124,-0.3116,-0.3067,-0.3037,-0.303,-0.3007,-0.3005,-0.2997,-0.2975,-0.2963,-0.2906,-0.291,-0.2903,-0.2896,-0.284,-0.284,-0.2839,-0.2858,-0.2859,-0.2859,0,0,0,0,0,0,-0.3169,-0.3127,-0.3117,-0.3092,-0.3068,-0.3032,-0.3021,-0.3009,-0.2985,-0.2984,-0.2957,-0.2949,-0.2926,-0.2908,-0.2914,-0.2876,-0.2872,-0.287,-0.2888,-0.2889,-0.289,-0.2894,-0.2898,0,0,0,0,0,-0.3171,-0.315,-0.3115,-0.3096,-0.3084,-0.3055,-0.3041,-0.3026,-0.3,-0.2989,-0.2965,-0.2941,-0.2917,-0.2902,-0.2879,-0.2855,-0.2847,-0.2847,-0.2848,-0.2849,-0.2847,-0.2834,-0.2833,-0.2838,-0.2838,-0.2838,0,0,-0.3176,-0.315,-0.3139,-0.31,-0.308,-0.3058,-0.3047,-0.3025,-0.3009,-0.2986,-0.296,-0.2942,-0.2912,-0.2887,-0.2875,-0.2872,-0.2844,-0.2848,-0.2849,-0.2847,-0.2833,-0.2833,-0.2832,-0.2837,-0.2838,-0.2838,0,0,-0.3173,-0.3152,-0.3134,-0.3114,-0.3083,-0.3063,-0.3059,-0.3025,-0.3011,-0.2985,-0.2967,-0.2948,-0.2908,-0.2888,-0.2872,-0.2863,-0.285,-0.2856,-0.2859,-0.2846,-0.2846,-0.2846,-0.2842,-0.2841,-0.2854,-0.2854,-0.2854,0,-0.3183,-0.315,-0.3126,-0.3105,-0.3089,-0.3067,-0.3049,-0.303,-0.2993,-0.2982,-0.298,-0.2929,-0.2908,-0.2878,-0.2876,-0.2864,-0.2858,-0.2859,-0.2848,-0.2847,-0.2846,-0.2843,-0.2841,-0.2855,-0.2855,-0.2855,-0.2855,0,-0.3163,-0.3141,-0.313,-0.3095,-0.3077,-0.3058,-0.3031,-0.3016,-0.3002,-0.2983,-0.2957,-0.2931,-0.2901,-0.2893,-0.288,-0.2862,-0.2861,-0.2853,-0.2848,-0.2847,-0.2843,-0.2842,-0.2856,-0.2856,-0.2856,-0.2856,0,0,-0.3174,-0.3126,-0.3122,-0.3106,-0.307,-0.3052,-0.3032,-0.3004,-0.2991,-0.2967,-0.2949,-0.2916,-0.2909,-0.2891,-0.2875,-0.2864,-0.2858,-0.2858,-0.2857,-0.2858,-0.2836,-0.2842,-0.284,-0.2849,-0.2849,-0.2849,-0.2838,0,-0.3166,-0.3128,-0.3106,-0.3077,-0.3056,-0.3036,-0.3018,-0.2994,-0.2976,-0.2956,-0.2936,-0.2913,-0.2905,-0.2895,-0.2883,-0.2861,-0.2853,-0.2861,-0.2832,-0.2832,-0.284,-0.2838,-0.2844,-0.2835,-0.2837,-0.2836,-0.2836,0,-0.3152,-0.3128,-0.3097,-0.3064,-0.3054,-0.3038,-0.301,-0.2991,-0.2964,-0.2952,-0.2932,-0.2916,-0.2894,-0.2891,-0.286,-0.2867,-0.2853,-0.2841,-0.284,-0.2836,-0.2834,-0.2834,-0.2832,-0.2831,-0.2834,-0.2834,-0.2834,0,-0.3162,-0.3122,-0.3098,-0.3085,-0.3046,-0.3035,-0.3018,-0.2991,-0.2976,-0.2951,-0.2941,-0.2914,-0.29,-0.288,-0.2857,-0.2857,-0.2828,-0.2824,-0.2817,-0.2818,-0.2812,-0.2813,-0.2808,-0.2804,-0.2804,-0.2804,-0.2804,0,-0.3156,-0.3138,-0.3102,-0.3088,-0.3067,-0.3042,-0.3022,-0.3004,-0.298,-0.2961,-0.2942,-0.2925,-0.2896,-0.2876,-0.2858,-0.2835,-0.2829,-0.2818,-0.2813,-0.2819,-0.2821,-0.281,-0.281,-0.2804,-0.2804,-0.2804,-0.2804,0,-0.3164,-0.3139,-0.3112,-0.3077,-0.3068,-0.3054,-0.3024,-0.3009,-0.2991,-0.2967,-0.2961,-0.2931,-0.2906,-0.2881,-0.2848,-0.2836,-0.2813,-0.2807,-0.2822,-0.2819,-0.2814,-0.2815,-0.2802,-0.2799,-0.2798,-0.2798,-0.2798,0,-0.3161,-0.3147,-0.311,-0.3096,-0.308,-0.3058,-0.3042,-0.3017,-0.3001,-0.2969,-0.2958,-0.2932,-0.2909,-0.287,-0.2846,-0.282,-0.2813,-0.281,-0.2809,-0.2816,-0.2813,-0.2814,-0.2812,-0.2811,-0.2811,-0.2811,-0.2811,0,-0.3159,-0.3148,-0.3125,-0.3098,-0.3079,-0.3057,-0.3034,-0.3024,-0.2995,-0.2978,-0.2952,-0.2934,-0.29,-0.2874,-0.2846,-0.2828,-0.2815,-0.2812,-0.2809,-0.2815,-0.2824,-0.2819,-0.2824,-0.2812,-0.2812,-0.2812,-0.2812,-0.2812,-0.3161,-0.3147,-0.312,-0.3095,-0.3075,-0.3054,-0.3038,-0.3018,-0.2995,-0.2966,-0.2952,-0.2926,-0.29,-0.286,-0.2843,-0.2822,-0.2819,-0.2815,-0.2814,-0.2813,-0.2814,-0.2828,-0.2817,-0.2817,-0.2817,-0.2817,-0.2817,0,-0.3158,-0.3139,-0.3117,-0.3085,-0.3066,-0.3055,-0.3029,-0.3014,-0.2991,-0.2967,-0.2945,-0.2916,-0.2891,-0.2864,-0.2837,-0.2826,-0.2819,-0.282,-0.282,-0.2817,-0.2819,-0.2824,-0.2826,-0.2826,-0.2826,-0.2826,-0.2826,-0.2826,-0.3154,-0.313,-0.3115,-0.3081,-0.3062,-0.3037,-0.3023,-0.3003,-0.2984,-0.2952,-0.2931,-0.2914,-0.2889,-0.286,-0.2837,-0.283,-0.2821,-0.2823,-0.2814,-0.2817,-0.2816,-0.2816,-0.282,-0.2821,-0.2821,-0.2813,-0.2813,-0.2813]},{"header":{"parameterUnit":"m.s-1","parameterCategory":1,"la1":30.2991,"la2":30.254,"lo1":-89.0895,"lo2":-89.0444,"dy":0.0017,"dx":0.0017,"nx":28,"ny":28,"refTime":"2025-06-18T21:00:00:Z","depth":0,"parameterNumber":3,"parameterNumberName":"V-component_of_WINDS"},"data":[0,0,0,0,0,0,0,0,0,0,0,0,0,0,0,0,0,0,0,0,0,0,0,0,0,0,0,0,0,0,0,0,0,0,0,0,0,0,0,0,0,0,0,0,0,0,0,0,0,0,0,0,0,0,0,0,0,0,4.004,4.004,0,4.0052,4.0053,4.0053,4.0047,4.0047,4.0046,4.0046,4.0056,4.0056,4.0057,0,0,0,0,0,0,0,0,0,0,0,0,0,4.0009,4.0009,4.004,4.004,4.004,4.0052,4.0053,4.0053,4.0047,4.0047,4.0046,4.0046,4.0055,4.0056,4.0057,0,0,0,0,0,0,0,0,0,0,0,0,0,4.0022,4.0009,4.0039,4.0039,4.0039,4.0052,4.0053,4.0053,4.0047,4.0047,4.0046,4.0046,4.0055,4.0056,4.0057,4.0071,0,0,4.0059,4.006,0,0,0,0,0,0,0,0,4.0021,4.0023,4.0039,4.0039,4.0039,4.0048,4.0045,4.0059,4.0047,4.0044,4.0046,4.0046,4.0053,4.0054,4.0057,4.0071,4.0072,4.0059,4.006,4.006,4.006,0,0,0,0,0,0,0,4.002,4.0022,4.0044,4.0039,4.0039,4.0037,4.0038,4.0048,4.0051,4.0044,4.0044,4.0046,4.0053,4.0057,4.0058,4.0072,4.0059,4.006,4.006,4.0061,4.01,4.0101,0,0,0,0,0,0,4.0019,4.0021,4.0044,4.0045,4.0029,4.0038,4.004,4.0045,4.0051,4.0051,4.0046,4.0045,4.0055,4.0057,4.0058,4.0076,4.006,4.0061,4.0061,4.01,4.01,4.0101,0,0,0,0,0,0,4.0019,4.0022,4.0044,4.0033,4.0036,4.0039,4.0046,4.0046,4.0049,4.0052,4.0052,4.0049,4.0055,4.0057,4.0068,4.0076,4.0061,4.0062,4.0099,4.01,4.0101,4.0112,0,0,0,0,0,0,4.0018,4.0021,4.0027,4.0033,4.0036,4.0054,4.0046,4.0046,4.0051,4.005,4.0055,4.0055,4.0055,4.0067,4.0069,4.0077,4.0063,4.0098,4.0099,4.01,4.011,4.0113,4.0115,0,0,0,0,0,4.0017,4.0028,4.0027,4.003,4.0044,4.0055,4.0056,4.0057,4.0052,4.0057,4.006,4.0055,4.0075,4.0069,4.0071,4.0079,4.0098,4.0099,4.01,4.011,4.0112,4.0115,0,0,0,0,0,0,4.002,4.0029,4.0028,4.0042,4.0048,4.0054,4.0061,4.0059,4.0066,4.0065,4.0064,4.0065,4.0077,4.0079,4.0072,4.0094,4.0086,4.0087,4.0092,4.0095,4.0097,4.0096,4.0063,0,0,0,0,0,4.0023,4.0032,4.0039,4.005,4.0054,4.0057,4.0062,4.0062,4.0068,4.007,4.0073,4.0078,4.0085,4.009,4.0097,4.0111,4.0113,4.0118,4.012,4.0122,4.0123,4.0132,4.0135,4.0105,4.0105,4.0105,0,0,4.0028,4.0034,4.0039,4.0051,4.0056,4.0066,4.0059,4.0068,4.0075,4.0071,4.0083,4.0085,4.0091,4.0104,4.011,4.0106,4.0132,4.0123,4.0125,4.0125,4.0134,4.0137,4.0139,4.0106,4.0106,4.0106,0,0,4.0042,4.0047,4.0058,4.0064,4.0072,4.0075,4.0078,4.0085,4.0087,4.0099,4.0097,4.0105,4.0117,4.0122,4.0126,4.0145,4.0142,4.0148,4.0158,4.0167,4.0169,4.0171,4.0179,4.0182,4.0149,4.0149,4.0149,0,4.0046,4.0061,4.0064,4.0075,4.0081,4.0079,4.0091,4.0096,4.0105,4.0109,4.0105,4.0123,4.0126,4.0141,4.0147,4.015,4.0153,4.0146,4.0169,4.0171,4.0173,4.018,4.0183,4.015,4.015,4.015,4.0149,0,4.0067,4.0078,4.0086,4.0098,4.0104,4.0115,4.0119,4.0126,4.0126,4.0129,4.0143,4.0147,4.0156,4.016,4.0159,4.0176,4.0174,4.0169,4.0161,4.0177,4.0184,4.0186,4.0151,4.015,4.015,4.015,0,0,4.0081,4.0097,4.01,4.0106,4.0117,4.0124,4.0136,4.0147,4.0153,4.016,4.017,4.0182,4.0179,4.0184,4.0184,4.0192,4.0209,4.0187,4.0187,4.0191,4.0229,4.0232,4.0235,4.0207,4.0207,4.0208,4.0229,0,4.0097,4.0119,4.0122,4.0141,4.0152,4.0152,4.0162,4.017,4.0173,4.0182,4.0186,4.0195,4.019,4.0193,4.0201,4.0205,4.0216,4.0203,4.0216,4.0216,4.0215,4.0239,4.0242,4.0261,4.0231,4.0232,4.0232,0,4.0117,4.0128,4.0148,4.016,4.0164,4.0173,4.0185,4.0193,4.0202,4.0204,4.0212,4.0211,4.0224,4.0216,4.0233,4.0224,4.023,4.0232,4.0233,4.0234,4.0225,4.0241,4.0267,4.027,4.0236,4.0236,4.0236,0,4.0127,4.0146,4.0161,4.0166,4.018,4.0186,4.0192,4.0201,4.0208,4.0217,4.0222,4.0232,4.0238,4.0246,4.0249,4.0242,4.0266,4.0258,4.0268,4.0268,4.0272,4.0272,4.03,4.0276,4.0276,4.0276,4.0276,0,4.0143,4.0156,4.0166,4.0175,4.019,4.0194,4.0208,4.0214,4.0222,4.0233,4.0233,4.0242,4.0246,4.0256,4.0258,4.0272,4.0274,4.0277,4.0277,4.0277,4.0277,4.028,4.0279,4.0276,4.0276,4.0276,4.0276,0,4.0156,4.0163,4.018,4.0192,4.0196,4.0206,4.0217,4.0226,4.0231,4.0244,4.0247,4.0254,4.0267,4.0271,4.0285,4.0286,4.0304,4.0303,4.0301,4.0301,4.0312,4.0311,4.0343,4.0348,4.032,4.032,4.032,0,4.0166,4.0176,4.0191,4.0199,4.0206,4.0218,4.0226,4.0231,4.0239,4.0252,4.026,4.0273,4.0283,4.0303,4.0308,4.032,4.0319,4.033,4.0321,4.0321,4.032,4.032,4.0321,4.0331,4.0332,4.0332,4.0332,0,4.0183,4.0187,4.0199,4.0214,4.0224,4.0235,4.0245,4.0252,4.0259,4.0268,4.0282,4.029,4.0306,4.0319,4.0331,4.0336,4.0336,4.0335,4.0338,4.0338,4.0337,4.0339,4.0306,4.0334,4.0334,4.0334,4.0334,4.0334,4.0195,4.0205,4.0218,4.0232,4.0242,4.0252,4.0262,4.027,4.0282,4.0297,4.0299,4.0314,4.0324,4.0341,4.0347,4.0359,4.0356,4.036,4.0361,4.0362,4.0363,4.0336,4.0361,4.0361,4.0361,4.0361,4.0361,0,4.0213,4.0223,4.0236,4.0252,4.0264,4.0264,4.0277,4.0286,4.03,4.0311,4.0322,4.0339,4.0352,4.036,4.0373,4.0381,4.0381,4.0384,4.0383,4.0385,4.0365,4.0361,4.0384,4.0384,4.0384,4.0384,4.0384,4.0384,4.0224,4.0242,4.0248,4.027,4.0279,4.0295,4.0303,4.0313,4.0322,4.0341,4.0353,4.0359,4.0369,4.0383,4.0395,4.0397,4.0402,4.0406,4.0408,4.0389,4.0386,4.0384,4.038,4.0407,4.0407,4.0427,4.0427,4.0427]}]]